RH
20 20 18 15 12 11 13 17 20 35 41 50 60 58 63 74 79 73 77 72 71 58 36 11 9 10 7 5 6 7 9 11 11 12 12 14 14 12 12 14 13 18 32
4 3 3 2 2 2 2 3 3 7 13 16 39 57 64 55 67 72 72 79 80 67 62 32 11 8 10 7 5 6 7 10 11 11 12 12 13 12 12 12 13 13 31
2 3 3 4 4 4 3 3 3 3 4 5 8 28 53 63 53 57 53 67 79 85 77 67 27 12 7 9 6 5 7 8 10 11 11 12 12 12 12 12 13 13 27
4 4 5 5 5 4 4 4 4 3 3 3 3 6 8 25 44 46 35 41 52 63 83 84 70 25 15 7 8 6 5 7 8 10 11 11 12 11 11 12 14 13 27
5 5 5 5 5 4 4 4 4 3 3 3 3 3 4 6 8 9 8 17 41 51 56 87 87 65 39 12 7 6 6 6 7 9 10 10 11 10 9 11 13 28 20
6 6 6 5 5 4 4 3 3 3 3 3 2 2 2 3 3 6 8 7 11 32 56 64 79 95 69 37 18 6 5 5 7 7 8 10 10 10 9 9 11 13 32
7 7 6 5 5 4 4 4 3 3 2 2 2 2 2 2 2 2 3 6 7 22 38 59 59 65 78 59 42 31 5 6 6 8 8 9 9 10 9 8 10 12 13
7 7 6 6 5 5 4 4 4 3 3 3 3 3 2 2 2 2 3 3 4 8 14 46 56 66 53 75 62 56 31 5 6 6 8 8 9 9 9 8 8 10 11
8 7 6 6 6 5 5 4 4 4 4 4 4 4 4 3 3 3 3 5 5 5 5 14 36 45 63 47 58 64 68 22 5 6 7 8 9 8 8 8 7 9 10
9 8 8 7 7 6 6 6 6 6 5 5 4 4 3 3 3 2 3 3 5 7 7 7 10 25 48 62 51 58 73 62 9 5 6 8 8 8 8 8 8 7 10
10 10 9 8 8 8 7 7 6 6 5 5 4 4 3 2 2 2 2 2 4 7 7 10 14 15 28 43 44 57 51 73 35 5 5 6 8 8 8 8 8 7 8
12 11 10 10 9 8 8 7 7 6 5 4 4 3 2 2 1 1 1 1 2 4 4 8 14 18 19 33 30 52 64 68 64 20 5 6 8 8 8 7 8 8 7
12 12 11 10 9 9 8 8 7 6 5 4 3 2 2 1 1 1 1 1 1 1 1 2 4 14 18 34 26 39 68 64 76 56 7 5 7 9 8 8 7 7 7
13 12 11 10 9 9 8 7 6 5 4 4 2 1 1 1 1 1 1 1 1 1 1 1 12 9 14 25 33 58 62 65 77 78 25 5 6 10 9 8 7 7 7
14 12 11 10 9 8 7 6 5 4 3 2 2 1 1 1 1 1 1 1 1 1 1 2 3 36 46 28 34 62 66 63 88 88 45 7 6 8 10 9 8 6 6
14 11 11 10 8 7 5 4 3 2 2 4 4 3 3 3 2 2 2 1 1 1 1 1 4 5 51 61 40 57 70 61 79 88 75 15 7 7 9 10 9 7 6
13 11 10 8 6 4 3 3 3 7 7 10 12 10 9 11 8 8 6 5 2 1 1 1 2 15 92 95 76 36 80 62 74 88 93 84 16 7 6 10 10 8 7
11 9 7 5 4 3 4 4 9 12 18 21 23 17 11 14 15 15 13 12 10 7 2 1 1 2 64 100 99 72 71 64 78 85 79 72 69 12 7 7 12 9 8
8 6 4 3 3 5 7 15 20 22 26 27 26 24 27 27 20 23 20 17 16 14 12 4 1 1 6 98 100 98 64 71 72 89 85 75 77 34 10 7 11 12 9
5 3 2 2 5 10 12 20 22 26 27 23 21 24 31 41 43 40 36 28 27 20 19 17 6 1 1 66 100 100 96 54 82 79 90 88 83 58 15 8 8 14 11
3 2 2 2 8 13 15 19 21 25 23 20 28 36 39 42 39 40 51 43 40 36 26 25 22 7 2 9 92 99 98 92 91 90 99 95 90 74 22 11 7 9 13
2 2 1 2 8 18 21 22 22 22 20 23 35 40 47 44 37 41 49 54 55 52 46 32 27 16 4 3 46 100 100 99 98 97 99 87 96 89 37 14 7 6 13
2 2 2 1 5 18 23 23 20 20 19 36 49 50 48 48 55 57 60 66 68 69 64 49 35 25 12 7 31 98 100 100 98 85 95 86 92 99 68 21 9 6 7
2 2 2 1 2 15 26 28 28 26 24 49 54 56 62 67 78 80 92 88 97 76 74 67 42 32 17 18 6 40 99 99 100 100 98 97 98 99 91 31 12 7 6
2 2 2 2 2 13 31 36 39 31 43 53 66 67 88 92 96 93 97 96 97 96 80 79 60 36 30 28 8 19 88 99 99 99 98 94 98 100 97 65 19 10 7
2 2 2 2 2 9 27 35 40 41 54 62 64 61 62 95 96 98 97 97 97 91 95 82 65 49 48 40 20 17 66 98 99 100 93 94 100 100 98 88 32 19 11
Wind_Speed
29 29 29 29 29 29 28 28 26 26 24 22 23 21 19 19 13 11 9 8 6 8 8 9 11 10 12 12 8 8 6 5 4 3 5 2 0 2 2 4 5 6 8
31 30 29 29 29 28 28 28 27 27 27 25 26 26 24 25 23 17 15 11 9 9 8 10 10 11 11 12 12 9 9 8 5 5 5 5 2 2 3 4 5 6 8
30 30 30 30 30 29 29 29 29 29 30 28 27 28 28 29 28 27 23 19 13 11 10 11 11 10 11 13 14 11 11 10 9 6 6 5 5 3 3 5 5 6 8
32 31 31 32 32 31 31 31 31 32 32 32 31 30 30 32 32 32 28 21 18 16 15 12 11 11 12 12 13 14 12 14 13 9 8 7 6 6 5 6 7 7 8
33 34 34 34 34 34 34 33 33 34 35 34 34 34 34 33 33 33 32 30 24 20 19 18 15 13 14 13 16 15 15 12 14 15 10 9 8 8 7 8 9 9 9
34 34 34 34 34 35 35 35 35 35 35 36 36 36 37 37 37 35 34 33 30 26 23 21 20 17 14 15 15 18 16 15 13 16 16 11 10 10 9 9 10 11 11
36 36 36 35 35 35 35 36 36 36 37 37 36 37 38 39 40 40 39 36 36 29 27 27 24 25 22 17 16 16 20 18 16 15 18 16 13 12 12 12 12 13 13
36 36 36 36 37 37 37 38 37 38 37 38 38 39 39 41 43 43 41 42 39 38 33 31 31 27 26 24 19 18 20 22 19 17 18 19 18 15 15 14 14 14 15
35 35 36 36 37 38 39 39 39 39 39 40 40 41 43 45 45 47 48 46 43 45 43 37 36 33 31 26 26 23 21 24 23 20 21 20 21 19 17 16 17 17 17
35 36 37 37 38 38 39 40 40 41 41 41 43 43 44 45 48 49 51 53 51 49 48 48 43 39 37 34 32 27 27 24 26 25 23 22 21 23 20 19 19 20 19
36 37 37 38 39 39 40 40 41 42 43 44 44 46 46 47 48 50 51 55 54 55 54 52 48 45 42 39 36 31 31 30 27 28 26 26 24 25 25 22 22 22 22
37 38 39 39 40 40 41 42 42 43 44 45 46 47 48 49 51 52 53 55 60 57 57 57 55 51 48 45 38 36 31 36 32 29 29 28 29 27 28 27 24 25 25
37 38 39 39 40 41 41 42 43 43 45 46 46 47 48 50 52 53 55 57 58 61 63 63 59 55 55 51 44 38 35 36 36 33 32 29 32 30 29 29 28 27 27
36 38 39 39 39 41 42 42 43 44 45 46 47 46 47 49 50 52 55 59 61 64 64 65 65 58 59 58 52 45 41 39 40 37 35 33 32 34 32 32 32 30 30
36 38 38 39 39 40 41 42 42 43 44 45 46 46 47 47 49 53 55 58 62 65 65 65 69 64 61 56 53 47 46 42 41 38 38 37 35 36 35 34 34 34 31
35 36 38 38 39 40 40 41 42 41 42 41 43 45 47 50 52 52 54 59 63 67 69 66 68 72 72 64 54 49 51 48 45 42 40 40 38 38 39 36 36 37 33
34 35 37 37 38 38 40 40 40 37 38 39 40 44 45 47 50 54 56 57 61 69 74 71 73 70 71 73 69 59 55 55 50 47 42 40 40 41 42 41 38 39 36
33 34 35 36 36 37 37 38 36 36 37 38 39 41 45 49 52 56 60 63 63 63 72 76 77 76 72 66 61 65 59 56 56 54 47 42 42 44 45 44 42 41 39
32 33 34 35 37 37 36 34 35 37 39 40 43 46 47 51 56 60 65 68 69 68 67 73 82 81 79 79 68 68 72 63 64 56 51 44 44 47 49 46 45 44 42
30 33 35 37 37 35 35 35 39 40 40 45 51 55 57 61 62 64 66 71 71 71 70 70 77 87 81 85 72 62 72 69 71 64 56 49 46 49 52 49 48 47 45
30 32 35 37 37 37 37 40 41 42 46 50 55 57 64 67 61 59 65 69 71 75 76 73 75 83 89 89 92 63 64 71 73 68 60 52 50 52 55 55 52 50 48
30 32 33 36 36 37 38 40 43 46 49 53 57 62 67 65 67 68 65 66 74 76 78 78 75 80 86 85 90 74 59 74 72 71 63 57 53 57 56 58 55 51 50
30 31 32 35 35 36 39 40 42 47 49 55 59 64 65 70 73 75 74 70 65 75 79 78 76 78 79 82 88 91 59 66 73 68 65 59 56 59 56 54 54 52 51
30 30 30 32 35 35 37 38 42 45 50 53 56 57 64 70 76 74 73 76 67 69 78 79 76 75 79 74 89 94 86 57 58 66 65 59 54 56 56 53 54 53 53
29 29 29 30 34 32 35 38 42 45 51 49 56 59 67 70 73 65 64 67 56 62 72 75 74 72 79 72 83 75 96 64 52 67 63 61 53 51 56 56 55 54 52
27 26 27 30 32 31 33 36 38 44 47 53 57 63 68 72 64 61 58 55 54 58 61 70 71 71 73 74 74 71 81 63 45 64 63 62 57 57 57 56 54 52 52
Wind_Direction
246 247 249 250 253 254 254 254 257 260 263 265 260 259 268 268 237 249 231 230 253 289 300 309 316 318 314 312 323 315 312 308 311 311 306 314 109 130 141 143 140 150 158
244 245 245 247 248 249 251 254 254 256 258 258 258 261 261 262 265 256 254 235 230 252 271 283 297 311 311 307 305 309 303 301 292 291 285 291 282 174 163 170 159 161 169
242 243 245 246 247 249 251 253 256 256 256 257 258 258 261 261 261 264 262 258 258 252 243 260 267 289 306 308 301 299 302 292 284 276 277 271 275 240 186 182 176 176 175
244 246 248 249 249 249 250 251 252 255 256 257 256 259 260 259 261 262 262 251 259 271 262 247 261 269 285 297 297 294 287 294 287 272 263 255 254 258 216 192 185 189 181
244 244 245 248 251 251 252 251 250 250 254 257 258 257 258 262 263 261 260 257 252 249 259 263 243 253 275 280 291 290 287 282 289 281 259 252 246 247 237 205 195 190 192
247 247 248 249 249 250 251 252 252 252 251 251 255 258 258 258 261 263 263 263 259 250 243 252 261 251 244 262 275 287 283 279 277 282 277 254 246 243 239 225 203 198 198
249 250 251 252 253 254 254 254 253 251 252 253 253 254 260 261 259 260 262 264 266 256 248 246 251 261 261 245 262 274 280 277 270 274 276 269 250 242 238 234 218 206 201
249 250 251 253 254 255 256 256 256 256 254 253 253 256 256 259 263 263 258 257 260 262 255 248 249 249 260 255 256 260 271 275 271 264 270 270 258 241 237 233 229 218 208
251 251 252 252 253 254 255 256 257 257 257 257 256 254 256 256 258 261 265 264 262 261 261 257 251 249 249 255 259 256 258 270 269 262 263 266 263 250 240 233 230 225 219
252 253 254 254 254 254 255 257 258 258 258 258 259 257 255 254 256 258 260 261 261 258 258 258 256 250 248 252 256 254 256 254 263 262 257 261 260 258 243 234 231 227 225
255 255 256 256 256 256 256 256 258 259 260 260 259 260 258 257 254 253 255 260 259 259 257 256 254 252 248 246 252 251 251 252 251 256 254 252 253 254 249 238 232 228 224
253 254 255 255 256 257 257 258 258 259 260 261 261 260 260 258 257 255 254 252 256 259 257 255 254 253 252 245 249 253 253 252 249 248 250 249 250 247 248 243 233 231 225
253 254 255 256 257 258 258 259 261 261 262 261 261 259 259 258 258 257 256 255 252 254 257 259 255 252 253 244 243 244 250 253 246 245 246 244 248 246 244 243 238 232 228
256 256 257 257 258 259 261 261 262 263 264 263 262 260 259 259 257 257 257 258 256 253 251 254 259 256 252 246 245 241 242 250 249 243 244 240 240 246 242 241 241 234 231
256 257 258 259 259 260 261 263 263 263 264 264 264 263 263 261 258 257 255 255 257 256 254 250 252 252 250 251 242 237 239 242 247 240 242 236 235 242 245 241 240 239 232
258 258 259 260 260 260 261 262 264 265 266 269 270 272 271 269 266 260 257 255 253 254 254 253 247 249 251 248 241 240 238 236 243 238 238 239 231 236 242 240 239 239 234
261 261 261 261 261 261 262 263 265 268 271 275 278 278 275 274 273 272 268 262 257 254 253 252 248 242 246 254 254 242 233 232 234 238 240 246 238 232 237 241 237 238 237
264 264 265 264 263 263 263 264 267 271 274 275 278 279 276 273 271 270 269 269 266 260 255 252 248 243 233 238 245 243 233 235 231 236 240 248 245 237 233 237 239 237 236
268 269 267 265 264 263 263 266 268 269 273 280 285 285 282 278 272 269 265 262 262 261 258 254 248 243 233 230 239 242 243 237 235 233 237 242 242 239 234 232 236 238 235
271 271 269 266 266 266 263 262 265 268 277 286 286 284 283 283 280 274 266 259 256 255 254 254 251 245 237 225 229 229 237 235 234 230 232 236 238 239 235 230 233 237 236
273 273 272 271 270 270 264 264 268 271 278 285 286 288 291 289 279 273 266 261 256 252 252 251 252 247 239 229 225 226 232 234 231 227 232 235 234 234 234 230 229 234 235
278 278 279 274 270 271 268 269 271 276 281 289 294 291 290 286 281 278 273 262 253 252 248 247 249 249 240 235 221 223 220 233 224 225 232 232 234 234 235 232 229 232 236
282 285 285 279 274 274 271 272 276 281 286 292 294 298 299 295 289 283 281 276 263 249 247 242 243 246 243 233 219 220 218 218 230 230 230 230 232 236 236 236 232 231 235
287 289 288 282 276 273 273 275 279 285 287 292 300 303 302 296 290 281 276 269 267 252 243 237 238 240 240 234 222 225 217 222 232 231 226 228 236 239 241 238 231 229 233
290 293 292 286 277 273 274 278 283 286 289 297 300 303 300 296 292 280 275 270 264 258 241 234 234 237 238 234 228 229 221 220 226 227 221 222 232 236 237 241 236 230 231
291 294 293 289 282 278 277 282 286 291 298 297 305 311 310 302 290 278 273 262 258 257 240 232 228 231 233 231 231 226 222 216 216 228 221 222 229 235 236 237 235 230 230